Location: Starry Hill Observatory
(46.8582°N, 122.3590°W)
Time: 10:23:53
(UTC-07:00)

Daily predictions for brighter satellites

Satellite Brightness Start Highest point End
(mag) Time Altitude Azimuth Time Altitude Azimuth Time Altitude Azimuth
Cosmos 2333 Rocket 2.9 18:26:57 10° NNW 18:32:13 35° NE 18:37:27 10° ESE
Cosmos 2219 4.0 18:30:12 10° SSE 18:35:10 31° ESE 18:40:09 10° NE
Cosmos 1833 4.2 18:29:46 10° SSW 18:35:27 83° ESE 18:41:07 10° NNE
NOSS 0 Rocket 4.5 18:30:35 10° NNW 18:36:18 37° NE 18:41:57 10° ESE
AQUARIUS 4.2 18:31:54 10° SSE 18:36:24 90° WSW 18:40:56 10° NNW
Cosmos 2058 2.9 18:32:44 10° N 18:36:56 79° E 18:41:04 10° SSE
Sich 1 4.3 18:36:27 10° NNE 18:39:49 21° ENE 18:43:10 10° ESE
SL-8 R/B 3.8 18:36:24 10° WSW 18:41:14 86° SSE 18:46:06 10° ENE
Cosmos 2151 3.0 18:37:14 10° N 18:41:32 89° E 18:45:47 10° S
Cosmos 44 3.3 18:40:53 10° SSW 18:45:01 46° ESE 18:49:11 10° NE
EO 1 Del DPAF 3.8 18:42:37 10° NNE 18:46:13 36° E 18:49:47 10° SSE
Landsat 4 3.6 18:42:41 10° NNE 18:46:24 64° ESE 18:50:05 10° S
Ariane Rocket 3.8 18:44:43 10° S 18:49:43 57° W 18:54:46 10° NNW
COSMO-SKYMED 1 3.1 18:45:43 10° NNE 18:49:44 36° E 18:53:45 10° SSE
MTI 3.9 18:47:24 10° NNE 18:50:32 49° E 18:53:39 10° S
MOS 1 4.3 18:45:22 10° SSE 18:50:56 62° ENE 18:56:35 10° N
Abrixas rocket 2.3 18:50:17 10° WNW 18:53:34 69° N 18:56:28 13° E
Cosmos 2322 4.5 18:49:04 10° NNW 18:54:41 58° WSW 19:00:15 10° S
Meteor 1-28 Rocket 3.1 18:51:54 10° NNE 18:55:42 77° ESE 18:59:27 10° S
SMAP 3.9 18:52:40 10° S 18:57:14 56° W 19:01:50 10° NNW
Cosmos 2219 Rocket 2.2 18:52:10 10° NNW 18:57:43 59° ENE 19:03:15 10° SE
Cosmos 1805 Rocket 3.9 18:54:25 10° N 18:58:39 44° ENE 19:02:53 10° SSE
GRACE-2 3.7 18:56:24 10° SSE 18:58:53 52° E 19:01:24 10° N
METEOR-M 4.1 18:53:47 10° SSE 18:59:05 68° ENE 19:04:24 10° N
CZ-4 R/B 2.0 18:55:11 10° S 18:59:19 62° WSW 19:03:25 10° NNW
Aureole 2 Rocket 2.8 18:56:41 10° NNW 19:00:34 59° ENE 19:04:35 10° SE
Centaur D AC-29 4.2 18:54:06 10° WSW 19:02:29 17° SSW 19:06:26 10° SSE
Cosmos 1626 4.2 19:01:36 10° NNW 19:05:00 33° W 19:08:22 10° SSW
GRACE-1 3.5 19:03:06 10° S 19:05:40 74° E 19:08:15 10° N
Cosmos 1666 Rocket 4.0 19:04:11 10° N 19:08:13 36° ENE 19:12:12 10° SE
FREGAT/IRIS 4.0 19:10:10 19° ENE 19:10:29 19° ENE 19:12:44 10° NNE
Cosmos 1315 Rocket 3.5 19:06:30 10° NNW 19:10:32 59° W 19:14:35 10° S
Cosmos 1633 Rocket 3.7 19:07:49 10° N 19:11:52 34° ENE 19:15:54 10° SE
YAOGAN 1 3.1 19:08:50 10° S 19:13:07 64° WSW 19:17:27 10° NNW
CZ-4C R/B 2.2 19:09:13 10° SSW 19:14:22 62° ESE 19:20:18 10° NE
BREEZE-M DEB (TANK) 4.0 19:10:25 10° WNW 19:14:25 69° SSW 19:29:58 10° SE
Cosmos 1269 Rocket 4.0 19:12:58 10° S 19:18:12 68° ESE 19:23:28 10° NNE
SKYMED 3 4.5 19:15:33 10° NNE 19:19:55 75° ESE 19:24:15 10° S
Iridium 4 Rocket 3.8 19:15:07 10° S 19:20:47 69° E 19:26:42 10° N
Cosmos 2084 3.2 19:19:03 10° NW 19:22:51 81° SW 19:26:44 10° SE
Cosmos 1908 3.7 19:19:38 10° SSW 19:23:31 64° W 19:27:24 10° N
Cosmos 44 Rocket 3.3 19:22:04 10° SW 19:26:46 80° NW 19:31:31 10° NE
Cosmos 2221 2.7 19:24:51 10° SSW 19:29:10 74° W 19:33:34 10° N
Cosmos 494 Rocket 4.4 19:25:33 10° SSE 19:30:11 36° ESE 19:34:51 10° NE
USA 234 4.2 19:26:41 15° ENE 19:31:27 37° N 19:37:20 10° WNW
SJ-6B 3.4 19:32:20 29° E 19:32:54 31° ENE 19:36:14 10° N
H-2A R/B 3.2 19:30:41 14° SE 19:33:41 41° ENE 19:37:24 10° N
Lacrosse 5 rocket 3.1 19:30:30 10° NW 19:33:52 21° N 19:35:43 16° NE
In-Cosmos 22 Rocket 4.3 19:28:16 10° N 19:33:57 58° ENE 19:39:41 10° SSE
SPOT 3 Rocket 3.8 19:29:18 10° S 19:34:29 72° WSW 19:39:44 10° NNW
Cosmos 2237 Rocket 2.2 19:31:01 10° NNW 19:36:44 65° ENE 19:42:12 11° SE
SKYMED 2 3.8 19:33:34 10° N 19:37:56 73° WNW 19:42:15 10° SSW
Cosmos 1110 Rocket 3.9 19:34:20 10° NNW 19:39:41 81° ENE 19:44:58 10° SSE
Cosmos 1300 2.5 19:40:41 10° S 19:44:29 70° E 19:48:19 10° NNE
Cosmos 1934 Rocket 3.9 19:38:25 10° S 19:44:44 71° E 19:51:05 10° NNE
Cosmos 2227 Rocket 2.5 19:41:13 10° S 19:46:30 42° ESE 19:50:00 20° NE
Abrixas 3.2 19:44:34 10° WSW 19:45:57 34° WSW 19:45:57 34° WSW
Cosmos 1892 4.0 19:45:04 10° N 19:47:06 24° NE 19:47:06 24° NE
Cosmos 1821 Rocket 4.0 19:42:26 10° S 19:48:38 85° W 19:54:59 10° N
Cosmos 2098 Rocket 3.9 19:45:11 10° SSW 19:50:13 74° WNW 19:56:38 10° N
SL-16 R/B 2.7 19:44:56 10° NNW 19:50:16 39° NE 19:51:51 32° E
USA 32 4.2 19:46:04 10° N 19:51:07 46° ENE 19:54:29 20° SE
MOS 1-B Rocket 4.2 19:53:44 25° SE 19:56:54 49° ENE 20:03:04 10° N
ATLAS 5 CENTAUR R/B 3.9 19:53:25 10° NNW 19:57:13 18° NNE 19:58:45 17° NE
BREEZE-M R/B 3.7 19:55:21 10° SSW 19:57:00 27° S 19:57:00 27° S
ALOS 2.9 19:53:26 10° S 19:58:02 57° W 20:02:40 10° NNW
Cosmos 1980 3.7 19:55:49 10° NNW 20:01:30 80° WSW 20:06:54 11° SSE
SWAS 4.3 19:58:53 10° SSW 20:03:08 67° ESE 20:03:57 52° ENE
FENGYUN 3A 4.3 20:01:01 10° S 20:06:18 55° W 20:11:39 10° NNW
Cosmos 1470 Rocket 3.5 20:02:24 10° N 20:06:52 64° E 20:07:39 53° SE
Envisat 3.5 20:08:15 38° NE 20:08:15 38° NE 20:12:29 10° N
Meteor 2-10 4.0 20:02:46 10° SSW 20:07:49 80° WNW 20:13:03 10° N
Cosmos 1726 3.6 20:05:43 10° SW 20:09:09 37° WNW 20:12:36 10° N
Cosmos 2251 Rocket 3.4 20:07:55 10° S 20:13:08 63° ESE 20:15:23 34° NE
Meteor 2-3 Rocket 3.6 20:09:48 10° N 20:15:34 68° ENE 20:18:03 34° SSE
Cosmos 2333 Rocket 3.3 20:11:10 10° NW 20:16:35 44° WSW 20:22:00 10° S
Cosmos 2123 Rocket 4.3 20:10:48 10° NNW 20:17:00 68° W 20:23:13 10° S
Sich 1 4.3 20:13:34 10° NNW 20:17:42 41° W 20:21:51 10° SSW
Cosmos 2219 4.2 20:13:36 10° SW 20:19:07 47° WNW 20:24:41 10° NNE
Cosmos 1605 Rocket 3.9 20:17:07 10° S 20:23:13 88° W 20:29:21 10° N
Cosmos 2297 Rocket 2.1 20:17:50 10° SSW 20:23:25 68° ESE 20:24:46 50° NE
SL-8 R/B 3.6 20:19:07 10° W 20:23:58 73° N 20:24:18 70° NE
Abrixas rocket 4.0 20:26:59 10° W 20:29:00 31° WSW 20:29:00 31° WSW
Cosmos 1153 Rocket 4.3 20:24:03 10° S 20:30:10 73° E 20:36:24 10° NNE
Thor Agena Rocket 3.8 20:25:46 10° N 20:30:50 66° WNW 20:35:49 10° SSW
BREEZE M DEB (TANK) 3.7 20:28:35 10° WNW 20:30:44 28° W 20:30:44 28° W
Resurs 01 Rocket 2.7 20:36:28 35° N 20:36:28 35° N 20:39:06 10° N
Cosmos 2082 3.5 20:29:19 10° SSW 20:35:02 80° ESE 20:36:10 58° NE
Meteor 2-17 Rocket 4.2 20:31:28 10° S 20:37:31 76° E 20:43:38 10° NNE
Cosmos 2219 Rocket 4.4 20:36:53 10° NW 20:41:14 24° WSW 20:45:35 10° SSW
Cosmos 2228 Rocket 3.8 20:46:10 10° SSW 20:52:34 31° NNW 20:55:09 10° N
CZ-4C R/B 3.7 20:58:18 10° W 21:03:19 34° NNW 21:06:12 23° NNE
Spot 2 Rocket 4.5 21:12:54 42° NW 21:12:54 42° NW 21:16:24 10° NNW
USA 234 3.6 21:14:02 52° NNE 21:14:02 52° NNE 21:20:03 10° NW
Lacrosse 5 rocket 3.8 21:10:02 10° NW 21:11:24 19° NW 21:11:24 19° NW
Cosmos 2237 Rocket 4.4 21:16:02 10° NW 21:20:16 22° W 21:24:07 11° SSW
Cosmos 2227 Rocket 3.5 21:25:27 10° WSW 21:30:38 36° NW 21:31:54 32° NNW
SL-16 R/B 3.4 21:29:10 10° NW 21:33:45 37° W 21:33:45 37° W
ATLAS 5 CENTAUR R/B 3.9 21:37:42 10° NNW 21:40:17 26° NNW 21:40:17 26° NNW
Cosmos 2297 Rocket 4.3 22:03:24 10° W 22:06:41 23° WNW 22:06:41 23° WNW
